Location: NJAA Observatory
(40.6819°N, 74.8979°W)
Time: 07:26:13
(UTC-05:00)

Iridium 84 - Visible Passes

Search period start: 18 December 2014 00:00
Search period end: 28 December 2014 00:00
Orbit: 776 x 779 km, 86.4° (Epoch: 17 December)

Date Brightness Start Highest point End Pass type
(mag) Time Alt. Az. Time Alt. Az. Time Alt. Az.
18 Dec 8.2 05:25:03 10° NNE 05:28:35 18° ENE 05:32:06 10° ESE visible
18 Dec 6.2 18:20:42 10° SSE 18:24:24 34° ESE 18:24:24 34° ESE visible
18 Dec 7.7 20:02:03 10° SW 20:04:58 22° W 20:04:58 22° W visible
19 Dec 5.6 06:30:55 10° N 06:36:09 87° E 06:41:21 10° S visible
19 Dec 6.7 17:48:24 10° SE 17:52:10 21° E 17:52:14 21° E visible
19 Dec 6.5 19:27:34 10° SSW 19:32:31 44° W 19:32:47 43° WNW visible
20 Dec 6.6 05:57:33 10° N 06:02:34 47° E 06:07:33 10° SSE visible
20 Dec 7.3 17:17:43 10° E 17:19:01 11° ENE 17:20:06 10° ENE visible
20 Dec 5.5 18:53:43 10° S 18:58:55 82° W 19:00:40 43° N visible
21 Dec 7.7 05:24:32 10° NNE 05:28:52 26° ENE 05:33:09 10° SE visible
21 Dec 5.6 18:20:24 10° SSE 18:25:27 54° E 18:28:36 23° NNE visible
21 Dec 8.1 20:03:11 10° WSW 20:06:31 17° WNW 20:09:10 12° NW visible
22 Dec 8.4 04:52:16 10° NE 04:55:01 14° ENE 04:57:45 10° ESE visible
22 Dec 5.5 06:31:03 10° N 06:36:13 65° W 06:41:21 10° S visible
22 Dec 6.3 17:47:40 10° SE 17:52:06 29° E 17:56:33 10° NNE visible
22 Dec 7.2 19:28:09 10° SW 19:32:43 31° W 19:37:08 11° NNW visible
23 Dec 5.9 05:57:30 10° N 06:02:43 68° E 06:07:53 10° S visible
23 Dec 7.0 17:15:45 10° ESE 17:18:52 16° ENE 17:21:59 10° NE visible
23 Dec 6.1 18:53:57 10° SSW 18:59:02 56° W 19:04:10 10° N visible
24 Dec 7.0 05:24:16 10° NNE 05:29:05 37° E 05:33:51 10° SSE visible
24 Dec 5.4 18:20:18 10° S 18:25:29 79° E 18:30:43 10° N visible
24 Dec 8.5 20:05:04 10° W 20:06:51 12° WNW 20:08:39 10° NW visible
25 Dec 8.0 04:51:28 10° NNE 04:55:19 21° ENE 04:59:08 10° SE visible
25 Dec 5.8 06:31:18 10° NNW 06:36:15 44° W 06:41:09 10° SSW visible
25 Dec 5.9 17:47:12 10° SSE 17:52:04 42° E 17:56:57 10° NNE visible
25 Dec 7.8 19:29:01 10° SW 19:32:57 22° WNW 19:36:55 10° NNW visible
26 Dec 8.5 04:20:01 10° NE 04:21:24 11° ENE 04:22:47 10° E visible
26 Dec 5.5 05:57:34 10° N 06:02:48 83° W 06:08:00 10° S visible
26 Dec 6.6 17:14:44 10° SE 17:18:45 23° E 17:22:48 10° NNE visible
26 Dec 6.9 18:54:22 10° SSW 18:59:12 39° W 19:04:04 10° NNW visible
27 Dec 6.3 05:24:08 10° N 05:29:14 53° E 05:34:19 10° SSE visible
27 Dec 5.7 18:20:23 10° S 18:25:34 72° W 18:30:47 10° N visible
